SKY MUSTER 1 (NBN1A)

Last updated on Thu Oct 30 2025 00:02:50 GMT+0000 (Coordinated Universal Time)

1 40940U 15054A 25302.35615708 -.00000269 00000+0 00000+0 0 9995 2 40940 0.0153 256.5876 0001725 310.6296 99.2051 1.00269739 36944
UTC large
Height (km)
Speed (km/s)
/
Latitude / Longitude
Inclination (degrees)
Orbital Period (minutes)
Azimuth
Elevation
Range (km)
Doppler Factor

Next 0 passes for location: London (51.5072 / 0.1276)

Sorry there are no passes over London.